User: anonymous   Login
Location: Владивосток
(43.1151°N, 131.8856°E)
Time: 08:59:46
(UTC+10:00)
Language:

AO-73 - Orbit

View from above orbital plane
View from above orbital plane
View from above satellite
View from above satellite

Ground track
Ground track

The orbit data is extracted from the following two-line orbital elements,

1 39444U 13066AE  24114.34185049  .00015167  00000-0  14993-2 0  9994
2 39444  97.7151  74.5782 0047651 325.3463  34.4653 14.91142513561938
Epoch (UTC): 23 April 2024 08:12:15
Eccentricity: 0.0047651
inclination: 97.7151°
perigee height: 561 km
apogee height: 627 km
right ascension of ascending node: 74.5782°
argument of perigee: 325.3463°
revolutions per day: 14.91142513
mean anomaly at epoch: 34.4653°
orbit number at epoch: 56193

The dashed part of the orbit path shows where the satellite is in the earth's shadow,  

DLR